QUANTUTONG 1

Satellite information

Favourite Embed

Satellite Type and Status

PAYLOADDECAYED

Key statistics

Satellite QUANTUTONG 1 at a glance.

Uptime

2504

Days in orbit

Revolutions

≈ 15.3

Per day

Orbit

SSO

Sun Synchronous Orbit

Inclination

97.3

Latest

Satellite identification and parameters

Extended collection of information and parameters for QUANTUTONG 1.

Object identification

Identified? True

Debris? False

Object name: QUANTUTONG 1

International designator: 2018-008D

Object number (NORAD): 43158

Object ID (CCSDS): 43158

Country: PEOPLES REPUBLIC OF CHINA (PRC)

Current information (Y/N): Y

RCS size: MEDIUM

Orbital parameters

Decay date: Nov. 27, 2024

Period: 93.821 minutes

Inclination: 97.273 deg

SMA: 6839.533 km

Apoapsis: 467.025 km

Periapsis: 455.77 km

RAAN: 92.088 deg

Eccentricy: 0.0008228

Argument of periapsis: 174.7874 deg

Mean anomaly: 185.3456 deg

Mean motion: 15.34839961 rev/day

Mean motion (dot): 0.00046094 rev/day2

B* drag term: 0.0013589 1/REarth

Two-line elements (TLE)

Creation date: Feb. 12, 2024, 3:07 a.m.

Reference frame: TEME

Reference center: EARTH

Epoch: Feb. 11, 2024, 3:58 p.m. UTC

TLE line 0: 0 QUANTUTONG 1

TLE line 1: 1 43158U 18008D 24042.66589499 .00046094 00000-0 13589-2 0 9997

TLE line 2: 2 43158 97.2730 92.0880 0008228 174.7874 185.3456 15.34839961334995

Live tracking on map

Satellite QUANTUTONG 1 has decayed and is no longer in orbit. No tracking available.

In-orbit conjunctions

Satellite QUANTUTONG 1 has decayed and is no longer in orbit. No conjunctions available.

Associated space launch

Jilin-1 is a series of Chinese commercial remote sensing satellites. These two satellites are sharing the ride with several cubesats.

QUANTUTONG 1 was lifted into orbit during the mission ‘Long March 11 | Jilin-1-07 (Deqing-1), Jilin-1-08’, on board a Long March 11 space rocket.

The launch took place on Jan. 19, 2018, 4:12 a.m. from Launch Area 95A.

For more information about the launch, click the button.

Launch to space Long March 11 | Jilin-1-07 (Deqing-1), Jilin-1-08
Long March 11 | Jilin-1-07 (Deqing-1), Jilin-1-08

Agency: N/A

Status: Launch Successful

Launch date: Jan. 19, 2018, 4:12 a.m. UTC

Rocket: Long March 11

Launch pad: Launch Area 95A

Location: Jiuquan Satellite Launch Center, People's Republic of China

...

Latest news about this satellite

There are no fresh news available about this satellite. Check back as we update our databases every day.


Newsletter sign-up

Weekly statistics, charts and insights to help you stay on top of the space industry.